[[{"header":{"parameterUnit":"m.s-1","parameterCategory":1,"la1":30.2991,"la2":30.254,"lo1":-89.0895,"lo2":-89.0444,"dy":0.0017,"dx":0.0017,"nx":28,"ny":28,"refTime":"2025-09-08T03:00:00:Z","depth":0,"parameterNumber":2,"parameterNumberName":"U-component_of_WINDS"},"data":[0,0,0,0,0,0,0,0,0,0,0,0,0,0,0,0,0,0,0,0,0,0,0,0,0,0,0,0,0,0,0,0,0,0,0,0,0,0,0,0,0,0,0,0,0,0,0,0,0,0,0,0,0,0,0,0,0,0,-5.0769,-5.077,0,-5.084,-5.084,-5.0841,-5.068,-5.0675,-5.067,-5.0665,-5.074,-5.0747,-5.0753,0,0,0,0,0,0,0,0,0,0,0,0,0,-5.0497,-5.0503,-5.0769,-5.077,-5.0771,-5.0839,-5.084,-5.0841,-5.0681,-5.0675,-5.0668,-5.0663,-5.0738,-5.0746,-5.0754,0,0,0,0,0,0,0,0,0,0,0,0,0,-5.0596,-5.0505,-5.0769,-5.0699,-5.0693,-5.0839,-5.084,-5.0842,-5.0682,-5.0674,-5.0667,-5.066,-5.0735,-5.0745,-5.0755,-5.0973,0,0,-5.0786,-5.0791,0,0,0,0,0,0,0,0,-5.0591,-5.0607,-5.0708,-5.0704,-5.0698,-5.0743,-5.0772,-5.0886,-5.0684,-5.0687,-5.0665,-5.0656,-5.0748,-5.0756,-5.0786,-5.0977,-5.098,-5.0787,-5.0793,-5.0798,-5.0801,0,0,0,0,0,0,0,-5.0584,-5.0603,-5.0797,-5.071,-5.0704,-5.0665,-5.067,-5.0793,-5.076,-5.0686,-5.0674,-5.0685,-5.0743,-5.0777,-5.0787,-5.0981,-5.0787,-5.0796,-5.0802,-5.0806,-5.1354,-5.1362,0,0,0,0,0,0,-5.0586,-5.0598,-5.0795,-5.0799,-5.0624,-5.0676,-5.0682,-5.0736,-5.0758,-5.0754,-5.0691,-5.0677,-5.0763,-5.0775,-5.0789,-5.1046,-5.0798,-5.0807,-5.0813,-5.1345,-5.1356,-5.1365,0,0,0,0,0,0,-5.0581,-5.0605,-5.0792,-5.0695,-5.0716,-5.0689,-5.0751,-5.0742,-5.0775,-5.0762,-5.0755,-5.0732,-5.0758,-5.0775,-5.0928,-5.1046,-5.0812,-5.0821,-5.1336,-5.1349,-5.136,-5.1562,0,0,0,0,0,0,-5.0574,-5.0604,-5.0686,-5.0698,-5.0722,-5.093,-5.0758,-5.0749,-5.0793,-5.0775,-5.0798,-5.0795,-5.0753,-5.0914,-5.0939,-5.1056,-5.0829,-5.1325,-5.1341,-5.1356,-5.1544,-5.158,-5.161,0,0,0,0,0,-5.0565,-5.0741,-5.0691,-5.0716,-5.0824,-5.0937,-5.095,-5.0898,-5.0803,-5.0886,-5.0877,-5.0794,-5.1029,-5.0931,-5.0957,-5.108,-5.1317,-5.1337,-5.1355,-5.153,-5.1573,-5.1609,0,0,0,0,0,0,-5.0744,-5.0741,-5.0686,-5.0871,-5.0906,-5.0909,-5.1012,-5.0945,-5.1008,-5.0988,-5.0921,-5.0928,-5.1095,-5.1102,-5.0993,-5.1292,-5.1157,-5.1182,-5.1281,-5.1322,-5.1354,-5.1349,-5.0838,0,0,0,0,0,-5.0805,-5.0896,-5.0889,-5.1053,-5.1073,-5.104,-5.1087,-5.1044,-5.1077,-5.1091,-5.1093,-5.113,-5.1211,-5.1267,-5.1341,-5.1544,-5.1548,-5.1642,-5.1674,-5.1701,-5.1724,-5.1833,-5.1875,-5.1427,-5.1427,-5.1426,0,0,-5.0932,-5.0941,-5.1003,-5.1089,-5.111,-5.1208,-5.1053,-5.1162,-5.1234,-5.1108,-5.1253,-5.1256,-5.1292,-5.1472,-5.1551,-5.1483,-5.1848,-5.1725,-5.1747,-5.1755,-5.1857,-5.1899,-5.1937,-5.144,-5.1437,-5.1435,0,0,-5.1213,-5.1229,-5.1368,-5.1392,-5.1426,-5.1403,-5.1437,-5.1451,-5.1449,-5.1593,-5.1501,-5.1585,-5.1727,-5.1757,-5.1791,-5.2084,-5.201,-5.211,-5.2281,-5.2388,-5.2423,-5.2454,-5.256,-5.2598,-5.2133,-5.2133,-5.2133,0,-5.1367,-5.1508,-5.1448,-5.1563,-5.1604,-5.1494,-5.1634,-5.1661,-5.1719,-5.175,-5.1673,-5.1849,-5.1866,-5.2051,-5.2123,-5.2153,-5.219,-5.2107,-5.2423,-5.2453,-5.2481,-5.2581,-5.2621,-5.2145,-5.2144,-5.2142,-5.2141,0,-5.1696,-5.1796,-5.1904,-5.1962,-5.2014,-5.2142,-5.2102,-5.2163,-5.2115,-5.2101,-5.225,-5.2265,-5.2341,-5.2382,-5.2337,-5.2562,-5.2519,-5.2434,-5.2297,-5.2537,-5.263,-5.2668,-5.2162,-5.2158,-5.2154,-5.2151,0,0,-5.2092,-5.2115,-5.2156,-5.2181,-5.221,-5.2287,-5.241,-5.2483,-5.2537,-5.2581,-5.2683,-5.2806,-5.2727,-5.2766,-5.2723,-5.2817,-5.3049,-5.272,-5.272,-5.2782,-5.3299,-5.3363,-5.3408,-5.3,-5.3007,-5.3013,-5.3296,0,-5.2371,-5.2581,-5.253,-5.2739,-5.2831,-5.2728,-5.2835,-5.2865,-5.2855,-5.2932,-5.2921,-5.301,-5.2899,-5.2922,-5.301,-5.3002,-5.3152,-5.2981,-5.3096,-5.31,-5.309,-5.3457,-5.3525,-5.3792,-5.3332,-5.3338,-5.3342,0,-5.2724,-5.278,-5.2998,-5.3013,-5.305,-5.3147,-5.3211,-5.3285,-5.3318,-5.3304,-5.3348,-5.3287,-5.3409,-5.3271,-5.344,-5.3325,-5.3368,-5.3372,-5.3381,-5.339,-5.3237,-5.3477,-5.3875,-5.3916,-5.3399,-5.3394,-5.339,0,-5.2992,-5.3122,-5.3269,-5.3294,-5.3315,-5.3386,-5.3399,-5.3423,-5.3471,-5.3527,-5.3558,-5.3628,-5.3667,-5.3723,-5.3683,-5.3586,-5.3859,-5.3717,-5.3852,-5.3853,-5.3914,-5.3911,-5.4327,-5.3942,-5.3941,-5.3941,-5.394,0,-5.3308,-5.3446,-5.339,-5.3481,-5.3632,-5.3573,-5.3725,-5.3725,-5.3749,-5.3838,-5.3753,-5.3839,-5.3781,-5.3863,-5.3832,-5.3977,-5.3995,-5.3988,-5.3978,-5.3996,-5.3997,-5.4024,-5.4005,-5.3951,-5.3949,-5.3947,-5.3945,0,-5.3633,-5.3601,-5.3755,-5.3763,-5.3768,-5.3879,-5.3886,-5.3971,-5.3954,-5.4069,-5.4093,-5.4067,-5.4159,-5.4124,-5.4223,-5.4202,-5.4387,-5.4353,-5.4376,-5.4368,-5.4505,-5.4493,-5.4953,-5.5011,-5.4589,-5.4593,-5.4596,0,-5.3838,-5.3941,-5.396,-5.4013,-5.4031,-5.4119,-5.4167,-5.4113,-5.4167,-5.4212,-5.4292,-5.4376,-5.4441,-5.4593,-5.4584,-5.4659,-5.4626,-5.4782,-5.4637,-5.4652,-5.463,-5.4624,-5.4635,-5.4812,-5.4817,-5.4821,-5.4824,0,-5.4204,-5.4183,-5.4255,-5.4323,-5.4383,-5.4434,-5.4477,-5.4526,-5.4474,-5.454,-5.4632,-5.4682,-5.4782,-5.4867,-5.4934,-5.4947,-5.4879,-5.487,-5.4905,-5.4924,-5.4934,-5.4931,-5.4456,-5.4859,-5.4856,-5.4853,-5.4851,-5.485,-5.4475,-5.4562,-5.4589,-5.4673,-5.47,-5.4743,-5.4823,-5.4816,-5.4892,-5.4968,-5.4932,-5.504,-5.5071,-5.5153,-5.5176,-5.5261,-5.52,-5.5251,-5.5264,-5.5278,-5.5296,-5.492,-5.5272,-5.5271,-5.527,-5.527,-5.5269,0,-5.4837,-5.4849,-5.4927,-5.499,-5.5057,-5.4984,-5.5029,-5.509,-5.5185,-5.5219,-5.5284,-5.5391,-5.5474,-5.5472,-5.5548,-5.5616,-5.5586,-5.5638,-5.5633,-5.5637,-5.5345,-5.5307,-5.5661,-5.5661,-5.5661,-5.5661,-5.566,-5.566,-5.5034,-5.5178,-5.5161,-5.5317,-5.5328,-5.5433,-5.5464,-5.5504,-5.5531,-5.5654,-5.5721,-5.5719,-5.5739,-5.5816,-5.5889,-5.5886,-5.5919,-5.5983,-5.5969,-5.5696,-5.5658,-5.562,-5.5585,-5.5991,-5.5991,-5.6254,-5.6256,-5.6258]},{"header":{"parameterUnit":"m.s-1","parameterCategory":1,"la1":30.2991,"la2":30.254,"lo1":-89.0895,"lo2":-89.0444,"dy":0.0017,"dx":0.0017,"nx":28,"ny":28,"refTime":"2025-09-08T03:00:00:Z","depth":0,"parameterNumber":3,"parameterNumberName":"V-component_of_WINDS"},"data":[0,0,0,0,0,0,0,0,0,0,0,0,0,0,0,0,0,0,0,0,0,0,0,0,0,0,0,0,0,0,0,0,0,0,0,0,0,0,0,0,0,0,0,0,0,0,0,0,0,0,0,0,0,0,0,0,0,0,-3.2335,-3.2335,0,-3.2309,-3.2309,-3.2309,-3.2245,-3.2244,-3.2243,-3.2241,-3.2214,-3.2215,-3.2215,0,0,0,0,0,0,0,0,0,0,0,0,0,-3.2327,-3.2328,-3.2335,-3.2335,-3.2334,-3.2309,-3.2309,-3.2309,-3.2245,-3.2244,-3.2242,-3.2241,-3.2214,-3.2215,-3.2215,0,0,0,0,0,0,0,0,0,0,0,0,0,-3.2319,-3.2328,-3.2335,-3.23,-3.2296,-3.2309,-3.2309,-3.2309,-3.2246,-3.2244,-3.2242,-3.224,-3.2214,-3.2215,-3.2216,-3.2261,0,0,-3.2218,-3.2218,0,0,0,0,0,0,0,0,-3.2319,-3.2319,-3.2305,-3.2302,-3.2299,-3.2278,-3.2296,-3.2293,-3.2246,-3.2265,-3.2241,-3.2239,-3.2237,-3.2236,-3.2236,-3.2259,-3.2258,-3.2218,-3.2219,-3.2219,-3.2219,0,0,0,0,0,0,0,-3.232,-3.232,-3.2325,-3.2305,-3.2301,-3.2285,-3.2281,-3.2295,-3.2263,-3.2263,-3.2259,-3.2256,-3.2235,-3.2235,-3.2235,-3.2258,-3.2218,-3.2219,-3.2219,-3.222,-3.2314,-3.2316,0,0,0,0,0,0,-3.2326,-3.2321,-3.2326,-3.2324,-3.2304,-3.2286,-3.2283,-3.2287,-3.2262,-3.2257,-3.2258,-3.2254,-3.2235,-3.2234,-3.2233,-3.2282,-3.2219,-3.222,-3.222,-3.2312,-3.2314,-3.2316,0,0,0,0,0,0,-3.2326,-3.2327,-3.2327,-3.2321,-3.232,-3.2289,-3.2294,-3.2287,-3.2287,-3.2259,-3.2252,-3.2264,-3.2233,-3.2232,-3.2254,-3.228,-3.222,-3.2221,-3.2309,-3.2313,-3.2315,-3.2382,0,0,0,0,0,0,-3.2326,-3.2327,-3.2345,-3.2322,-3.232,-3.2348,-3.2296,-3.2288,-3.2289,-3.2283,-3.2263,-3.2257,-3.2231,-3.2253,-3.2254,-3.228,-3.2221,-3.2307,-3.2311,-3.2314,-3.2377,-3.2387,-3.2395,0,0,0,0,0,-3.2326,-3.2365,-3.2346,-3.2347,-3.2342,-3.235,-3.2349,-3.2319,-3.2291,-3.2308,-3.2289,-3.2258,-3.2277,-3.2255,-3.2257,-3.2283,-3.2305,-3.231,-3.2314,-3.2373,-3.2385,-3.2395,0,0,0,0,0,0,-3.2393,-3.2362,-3.234,-3.2373,-3.2365,-3.2339,-3.236,-3.2333,-3.2331,-3.2326,-3.2288,-3.2284,-3.231,-3.2299,-3.2275,-3.2324,-3.2286,-3.2291,-3.233,-3.2341,-3.235,-3.2351,-3.2222,0,0,0,0,0,-3.2411,-3.2421,-3.2393,-3.2425,-3.2422,-3.2392,-3.2394,-3.2371,-3.2361,-3.2357,-3.2339,-3.233,-3.2334,-3.2337,-3.2339,-3.2375,-3.2369,-3.2394,-3.2403,-3.241,-3.2415,-3.243,-3.2441,-3.2331,-3.2331,-3.2331,0,0,-3.2449,-3.2434,-3.2442,-3.2438,-3.2429,-3.2438,-3.2389,-3.2402,-3.2409,-3.2359,-3.2377,-3.2364,-3.2351,-3.2379,-3.2391,-3.2371,-3.2443,-3.2416,-3.2422,-3.2423,-3.2436,-3.2446,-3.2456,-3.2334,-3.2334,-3.2333,0,0,-3.2524,-3.2514,-3.2538,-3.2529,-3.2515,-3.2495,-3.2501,-3.2479,-3.2468,-3.2486,-3.2448,-3.2455,-3.2463,-3.2454,-3.2451,-3.2519,-3.249,-3.2521,-3.2568,-3.2583,-3.2592,-3.2599,-3.2622,-3.263,-3.2526,-3.2526,-3.2526,0,-3.2573,-3.2587,-3.2554,-3.2569,-3.2567,-3.2521,-3.2544,-3.2538,-3.2525,-3.2525,-3.2503,-3.251,-3.2498,-3.2522,-3.2539,-3.2538,-3.2542,-3.2523,-3.2593,-3.26,-3.2607,-3.2628,-3.2636,-3.253,-3.2529,-3.2529,-3.2529,0,-3.2647,-3.2657,-3.2678,-3.2666,-3.2667,-3.2686,-3.2655,-3.2659,-3.2636,-3.2617,-3.2635,-3.2619,-3.2615,-3.2619,-3.2597,-3.264,-3.2628,-3.26,-3.2561,-3.2622,-3.264,-3.2648,-3.2535,-3.2534,-3.2533,-3.2532,0,0,-3.2763,-3.2732,-3.274,-3.2733,-3.2713,-3.272,-3.2736,-3.2732,-3.2736,-3.2729,-3.274,-3.2746,-3.272,-3.2716,-3.2692,-3.2706,-3.2759,-3.2677,-3.2676,-3.2691,-3.2802,-3.2822,-3.2832,-3.2739,-3.2741,-3.2742,-3.2802,0,-3.2832,-3.2857,-3.2827,-3.2859,-3.2866,-3.2822,-3.2836,-3.2825,-3.2807,-3.281,-3.2791,-3.2795,-3.2761,-3.2758,-3.277,-3.275,-3.278,-3.2745,-3.2748,-3.2748,-3.2751,-3.2842,-3.2863,-3.2921,-3.281,-3.2811,-3.2812,0,-3.2915,-3.291,-3.2943,-3.2919,-3.2921,-3.2934,-3.2927,-3.2931,-3.2916,-3.2902,-3.2897,-3.2868,-3.2881,-3.2843,-3.2859,-3.2836,-3.2835,-3.2825,-3.2826,-3.2824,-3.2783,-3.284,-3.2939,-3.2947,-3.2824,-3.2823,-3.2822,0,-3.2994,-3.2996,-3.3015,-3.301,-3.2984,-3.2993,-3.2982,-3.2966,-3.2965,-3.2959,-3.2957,-3.2953,-3.295,-3.2947,-3.2916,-3.2892,-3.2935,-3.2896,-3.2922,-3.2923,-3.2932,-3.2932,-3.303,-3.2935,-3.2935,-3.2935,-3.2934,0,-3.3072,-3.3093,-3.3049,-3.3061,-3.3082,-3.3047,-3.3069,-3.3053,-3.3039,-3.3046,-3.3008,-3.3015,-3.2975,-3.2978,-3.2954,-3.2969,-3.2969,-3.2957,-3.295,-3.2959,-3.2961,-3.2957,-3.2952,-3.2937,-3.2936,-3.2936,-3.2936,0,-3.3164,-3.3135,-3.3153,-3.3125,-3.3119,-3.3136,-3.3111,-3.312,-3.31,-3.3109,-3.3109,-3.3076,-3.3077,-3.3047,-3.3042,-3.3025,-3.305,-3.3037,-3.3055,-3.305,-3.3077,-3.3074,-3.3176,-3.3186,-3.3086,-3.3087,-3.3088,0,-3.3215,-3.323,-3.3204,-3.3205,-3.3196,-3.32,-3.3198,-3.3163,-3.3162,-3.3146,-3.3156,-3.3153,-3.3149,-3.3152,-3.3127,-3.3122,-3.3108,-3.3143,-3.3107,-3.3115,-3.3106,-3.3104,-3.3105,-3.3151,-3.3152,-3.3153,-3.3154,0,-3.3308,-3.3293,-3.3292,-3.3286,-3.3284,-3.3278,-3.3269,-3.3272,-3.3233,-3.3235,-3.3234,-3.3231,-3.3225,-3.3222,-3.3212,-3.32,-3.317,-3.3166,-3.3171,-3.318,-3.3189,-3.3182,-3.3074,-3.3163,-3.3163,-3.3162,-3.3161,-3.3161,-3.3379,-3.339,-3.3372,-3.3372,-3.3361,-3.3353,-3.3359,-3.3338,-3.3338,-3.3329,-3.3309,-3.3311,-3.3294,-3.3278,-3.3268,-3.3268,-3.325,-3.3259,-3.3261,-3.3263,-3.3267,-3.319,-3.3267,-3.3267,-3.3266,-3.3266,-3.3266,0,-3.3469,-3.3455,-3.3455,-3.3443,-3.3442,-3.3414,-3.3402,-3.3403,-3.3405,-3.3392,-3.3388,-3.3387,-3.3383,-3.3358,-3.3351,-3.3356,-3.3342,-3.3356,-3.3354,-3.3351,-3.3285,-3.328,-3.3367,-3.3367,-3.3367,-3.3367,-3.3367,-3.3367,-3.3515,-3.353,-3.3512,-3.3521,-3.3506,-3.3508,-3.3503,-3.3495,-3.3484,-3.3484,-3.348,-3.3464,-3.3445,-3.3436,-3.3431,-3.3424,-3.3422,-3.3439,-3.3427,-3.3366,-3.3356,-3.3347,-3.3342,-3.344,-3.344,-3.3493,-3.3493,-3.3494]}]]